Date String (YYYY-MM-DD hh:mm:ss) UTC,Instrument flags,absolute air pressure of the measurement (hPa),sample flow rate (lpm),inlet stack bypass flow (lpm),air temperature of the measurement (°C),ambient temperature measured by the external sensor (°C),aerosol sample conditioner tube jacket temperature (°C),OPC LED temperature (°C),internal box temperature (°C),relative humidity of the measurement (%),span deviation,mass concentration of particles derived from Lorenz-Mie calculation of OPC scattering (μg/m³),mass concentration of particles derived from Lorenz-Mie calculation of OPC scattering (μg/m³),mass concentration of particles derived from Lorenz-Mie calculation of OPC scattering (μg/m³)
DateTimeUTC,F1_M11,P_M11,Q1_M11,Q2_M11,T1_M11,T2_M11,T3_M11,T4_M11,T5_M11,U1_M11,ZSPAN_M11,X0_M11,X2_M11,X1_M11
2023-09-18 18:00:00,SystemResetWarning,0830.7,4.99,000.00,027.5,024.7,000.0,035.9,029.0,15.4,0000.0,0005.36,0003.14,0002.59
2023-09-18 18:01:00,SystemResetWarning,0830.7,5.00,000.00,027.5,025.1,000.0,035.9,029.0,14.8,0000.0,0005.75,0003.13,0002.58
2023-09-18 18:02:00,SystemResetWarning,0830.7,5.01,000.00,027.6,025.5,000.0,035.9,029.1,14.6,0000.0,0006.77,0003.15,0002.57
2023-09-18 18:03:00,SystemResetWarning,0830.6,5.00,000.00,027.6,025.9,000.0,035.9,029.2,14.8,0000.0,0006.57,0003.14,0002.58
2023-09-18 18:04:00,SystemResetWarning,0830.7,5.00,000.00,027.6,026.2,000.0,035.9,029.3,14.9,0000.0,0006.44,0003.14,0002.58
2023-09-18 18:05:00,SystemResetWarning,0830.6,5.00,000.00,027.7,026.4,000.0,035.9,029.4,14.6,0000.0,0006.55,0003.16,0002.58
2023-09-18 18:06:00,SystemResetWarning,0830.6,5.00,000.00,027.7,026.7,000.0,036.0,029.4,14.9,0000.0,0006.57,0003.17,0002.57
2023-09-18 18:07:00,SystemResetWarning,0830.6,4.99,000.00,027.8,026.4,000.0,036.0,029.4,14.7,0000.0,0006.47,0003.15,0002.55
2023-09-18 18:08:00,SystemResetWarning,0830.5,4.99,000.00,027.7,024.9,000.0,035.9,029.0,14.5,0000.0,0007.18,0003.16,0002.55
2023-09-18 18:09:00,SystemResetWarning,0830.4,5.01,000.00,027.6,024.2,000.0,035.9,028.9,14.7,0000.0,0007.69,0003.16,0002.53
2023-09-18 18:10:00,SystemResetWarning,0830.5,5.02,000.00,027.6,024.5,000.0,035.8,029.0,14.6,0000.0,0007.75,0003.18,0002.52
2023-09-18 18:11:00,SystemResetWarning,0830.4,4.99,000.00,027.5,024.8,000.0,035.8,029.0,15.1,0000.0,0007.52,0003.16,0002.52
2023-09-18 18:12:00,SystemResetWarning,0830.4,5.00,000.00,027.5,025.2,000.0,035.9,029.1,15.7,0000.0,0007.33,0003.16,0002.53
2023-09-18 18:13:00,SystemResetWarning,0830.4,5.01,000.00,027.6,025.6,000.0,035.9,029.1,15.7,0000.0,0006.41,0003.13,0002.54
2023-09-18 18:14:00,SystemResetWarning,0830.3,5.00,000.00,027.6,026.0,000.0,035.9,029.2,15.1,0000.0,0006.63,0003.12,0002.54
2023-09-18 18:15:00,SystemResetWarning,0830.4,5.00,000.00,027.7,026.3,000.0,035.9,029.3,14.7,0000.0,0006.67,0003.13,0002.54
2023-09-18 18:16:00,SystemResetWarning,0830.4,5.00,000.00,027.7,026.5,000.0,035.9,029.4,14.6,0000.0,0006.77,0003.13,0002.54
2023-09-18 18:17:00,SystemResetWarning,0830.4,5.00,000.00,027.8,026.7,000.0,036.0,029.4,14.6,0000.0,0006.69,0003.11,0002.53
2023-09-18 18:18:00,SystemResetWarning,0830.3,4.99,000.00,027.8,026.1,000.0,035.9,029.3,14.4,0000.0,0006.70,0003.11,0002.52
2023-09-18 18:19:00,SystemResetWarning,0830.3,5.01,000.00,027.6,024.6,000.0,035.9,028.9,14.4,0000.0,0005.89,0003.09,0002.51
2023-09-18 18:20:00,SystemResetWarning,0830.3,5.01,000.00,027.6,024.3,000.0,035.8,028.9,14.6,0000.0,0005.29,0003.11,0002.50
2023-09-18 18:21:00,SystemResetWarning,0830.2,4.99,000.00,027.5,024.6,000.0,035.8,028.9,14.7,0000.0,0005.20,0003.09,0002.51
2023-09-18 18:22:00,SystemResetWarning,0830.2,5.00,000.00,027.5,025.0,000.0,035.8,029.0,15.1,0000.0,0005.33,0003.11,0002.50
2023-09-18 18:23:00,SystemResetWarning,0830.3,5.00,000.00,027.5,025.4,000.0,035.9,029.1,15.5,0000.0,0005.79,0003.11,0002.50
2023-09-18 18:24:00,SystemResetWarning,0830.3,5.00,000.00,027.6,025.8,000.0,035.9,029.2,15.2,0000.0,0006.31,0003.12,0002.49
2023-09-18 18:25:00,SystemResetWarning,0830.3,5.00,000.00,027.6,026.1,000.0,035.9,029.2,15.4,0000.0,0006.83,0003.13,0002.49
2023-09-18 18:26:00,SystemResetWarning,0830.2,4.99,000.00,027.7,026.3,000.0,035.9,029.3,14.7,0000.0,0006.82,0003.12,0002.48
2023-09-18 18:27:00,SystemResetWarning,0830.2,5.00,000.00,027.7,026.6,000.0,035.9,029.4,14.9,0000.0,0006.59,0003.09,0002.47
2023-09-18 18:28:00,SystemResetWarning,0830.2,4.99,000.00,027.7,026.1,000.0,035.9,029.3,14.8,0000.0,0007.09,0003.10,0002.47
2023-09-18 18:29:00,SystemResetWarning,0830.2,5.00,000.00,027.6,024.5,000.0,035.9,028.8,15.4,0000.0,0007.67,0003.10,0002.46
2023-09-18 18:30:00,SystemResetWarning,0830.3,5.01,000.00,027.5,024.1,000.0,035.8,028.8,14.9,0000.0,0007.64,0003.10,0002.47
2023-09-18 18:31:00,SystemResetWarning,0830.2,5.01,000.00,027.5,024.4,000.0,035.8,028.8,15.2,0000.0,0007.75,0003.11,0002.48
2023-09-18 18:32:00,SystemResetWarning,0830.2,5.00,000.00,027.4,024.7,000.0,035.8,028.8,15.2,0000.0,0007.83,0003.13,0002.48
2023-09-18 18:33:00,SystemResetWarning,0830.2,5.00,000.00,027.5,025.2,000.0,035.8,028.9,15.8,0000.0,0007.85,0003.10,0002.49
2023-09-18 18:34:00,SystemResetWarning,0830.2,5.00,000.00,027.5,025.6,000.0,035.8,029.0,16.2,0000.0,0008.08,0003.10,0002.49
2023-09-18 18:35:00,SystemResetWarning,0830.3,5.00,000.00,027.5,025.9,000.0,035.8,029.1,16.7,0000.0,0007.97,0003.10,0002.49
2023-09-18 18:36:00,SystemResetWarning,0830.3,5.00,000.00,027.6,026.2,000.0,035.9,029.2,16.3,0000.0,0007.63,0003.09,0002.49
2023-09-18 18:37:00,SystemResetWarning,0830.2,5.00,000.00,027.6,026.4,000.0,035.9,029.3,15.8,0000.0,0007.60,0003.06,0002.51
2023-09-18 18:38:00,SystemResetWarning,0830.2,5.00,000.00,027.7,026.7,000.0,035.9,029.4,15.6,0000.0,0008.04,0003.09,0002.53
2023-09-18 18:39:00,SystemResetWarning,0830.2,4.99,000.00,027.7,026.4,000.0,035.9,029.4,15.6,0000.0,0008.11,0003.11,0002.55
2023-09-18 18:40:00,SystemResetWarning,0830.1,4.99,000.00,027.6,024.9,000.0,035.9,028.9,15.5,0000.0,0007.82,0003.14,0002.57
2023-09-18 18:41:00,SystemResetWarning,0830.1,5.02,000.00,027.5,024.2,000.0,035.8,028.8,15.6,0000.0,0007.92,0003.15,0002.57
2023-09-18 18:42:00,SystemResetWarning,0830.1,5.00,000.00,027.5,024.5,000.0,035.8,028.9,15.7,0000.0,0007.91,0003.16,0002.58
2023-09-18 18:43:00,SystemResetWarning,0830.0,5.00,000.00,027.5,024.8,000.0,035.8,028.9,15.5,0000.0,0007.81,0003.15,0002.59
2023-09-18 18:44:00,SystemResetWarning,0830.1,5.00,000.00,027.5,025.2,000.0,035.8,029.0,15.7,0000.0,0008.12,0003.16,0002.60
2023-09-18 18:45:00,SystemResetWarning,0830.1,5.00,000.00,027.5,025.6,000.0,035.8,029.1,16.0,0000.0,0008.27,0003.18,0002.60
2023-09-18 18:46:00,SystemResetWarning,0830.2,5.00,000.00,027.5,026.0,000.0,035.8,029.2,15.3,0000.0,0007.79,0003.18,0002.61
2023-09-18 18:47:00,SystemResetWarning,0830.1,5.00,000.00,027.6,026.3,000.0,035.8,029.3,15.4,0000.0,0007.45,0003.17,0002.61
2023-09-18 18:48:00,SystemResetWarning,0830.1,5.00,000.00,027.7,026.5,000.0,035.9,029.4,15.4,0000.0,0007.47,0003.16,0002.60
2023-09-18 18:49:00,SystemResetWarning,0830.1,5.00,000.00,027.7,026.7,000.0,035.9,029.4,15.6,0000.0,0007.12,0003.16,0002.60
2023-09-18 18:50:00,SystemResetWarning,0830.1,4.99,000.00,027.8,026.7,000.0,035.9,029.5,15.4,0000.0,0006.46,0003.17,0002.60
2023-09-18 18:51:00,SystemResetWarning,0830.0,5.00,000.00,027.7,025.5,000.0,035.9,029.1,16.2,0000.0,0006.81,0003.21,0002.58
2023-09-18 18:52:00,SystemResetWarning,0830.0,5.00,000.00,027.6,024.4,000.0,035.8,028.9,16.1,0000.0,0006.58,0003.22,0002.57
2023-09-18 18:53:00,SystemResetWarning,0830.0,5.01,000.00,027.6,024.6,000.0,035.8,029.0,16.2,0000.0,0006.49,0003.21,0002.58
2023-09-18 18:54:00,SystemResetWarning,0830.0,5.02,000.00,027.5,024.9,000.0,035.8,029.0,15.3,0000.0,0006.38,0003.19,0002.58
2023-09-18 18:55:00,SystemResetWarning,0830.0,5.00,000.00,027.5,025.3,000.0,035.8,029.1,15.6,0000.0,0006.23,0003.18,0002.57
2023-09-18 18:56:00,SystemResetWarning,0830.0,5.00,000.00,027.6,025.7,000.0,035.9,029.2,16.4,0000.0,0004.96,0003.16,0002.58
2023-09-18 18:57:00,SystemResetWarning,0830.0,5.00,000.00,027.6,026.0,000.0,035.9,029.3,15.3,0000.0,0004.81,0003.14,0002.57
2023-09-18 18:58:00,SystemResetWarning,0830.0,5.00,000.00,027.7,026.3,000.0,035.9,029.3,14.9,0000.0,0004.89,0003.14,0002.56
2023-09-18 18:59:00,SystemResetWarning,0830.0,5.00,000.00,027.7,026.6,000.0,035.9,029.4,14.9,0000.0,0005.18,0003.18,0002.56
